Vertical_Velocity
-1 0 -1 -1 -1 -0 -1 -1 -1 1 0 -1 -1 -0 0 -0 0 -0 -0 -0 -1 0 -1 -1 -1 -0 -1 0 -1 -0 -0 -0 0 0 0 -0 0 -0 -1 -1 0 -1 -1
2 1 1 -1 -2 -0 -1 -1 -1 1 0 0 1 0 0 1 -0 0 0 -1 -1 -1 -0 -0 -0 -0 0 1 1 1 1 1 0 0 -0 0 1 -0 1 1 -0 0 1
-1 0 -1 -0 -0 1 -0 -0 -0 -0 1 -0 -0 -1 -1 0 0 -1 1 1 -0 -0 -1 -0 -0 0 -0 -1 0 0 0 -1 0 1 1 0 -0 0 -0 0 0 0 0
-0 0 -0 -1 1 1 1 -1 0 -0 -0 1 0 0 -0 -1 0 -0 -1 -1 1 0 -1 -0 0 -1 0 -0 -1 -1 -1 0 -0 -0 -0 0 -0 0 -0 -0 -0 0 -0
-1 -0 1 0 -0 0 1 1 1 1 0 -0 -0 -0 0 0 -1 -0 0 -0 -0 0 0 0 0 -0 0 0 -0 -0 -1 -1 0 1 -0 0 0 -0 -1 -2 -1 -1 -0
-1 -1 1 -0 -2 -0 -0 -0 0 0 0 1 1 -0 0 1 -0 -0 -1 -0 -0 -0 -0 0 -1 -0 -1 -0 -1 -1 -1 0 -0 1 0 0 -1 -1 -0 0 -2 -2 -2
-1 -2 -0 -2 -1 -0 1 1 1 0 0 0 -0 0 -0 0 -1 -1 -1 -1 -1 -0 0 0 -0 -1 -0 -0 -0 -0 -0 -0 -0 -0 -0 -1 -1 -0 0 0 -1 -2 -1
-1 0 -2 0 -1 0 0 0 0 0 -0 -0 -1 0 -0 0 -0 -0 -0 0 -1 -1 0 -0 -0 0 -0 1 -0 -1 -0 -0 -1 -1 -2 -1 -2 -1 -1 -1 -0 -1 -1
-1 -0 2 1 0 -1 -0 -0 1 1 1 -0 0 0 -0 0 -0 -1 -0 -0 -0 -2 -2 0 -0 0 0 0 1 0 -0 -0 -1 0 -0 -1 -1 -2 -2 -2 0 0 -0
-0 -0 1 1 -0 -0 -1 0 1 1 -1 0 -1 0 -1 0 -1 0 -1 -1 0 -0 -1 -1 0 -0 0 0 0 -1 -1 -1 -2 -1 -0 0 -0 -0 1 0 0 -1 -0
-1 -0 -0 1 -1 1 -1 -1 -0 -1 -1 0 -1 -1 -0 0 -1 -0 -1 -1 -0 -0 -2 -1 0 -0 -0 -0 0 -1 -1 -1 0 -0 -0 -0 1 -0 -1 1 -0 -1 -1
1 1 0 1 0 -1 -0 -0 0 -1 -1 0 -0 -0 -0 0 -1 -0 -1 -1 -1 -1 -1 -3 -1 -0 0 -1 -1 -1 -2 -1 -1 -1 -1 -1 -1 1 0 -1 -1 0 0
3 2 2 2 1 0 0 -1 1 -1 -1 -0 -0 0 -0 0 -1 -1 -0 -1 -1 -1 -2 -1 -1 -1 -0 -0 -0 -0 -0 -0 -1 -1 -3 -1 -1 -1 0 -1 -0 -2 1
4 3 1 3 2 2 1 -0 0 1 -0 0 0 0 -0 -1 -1 -1 -0 -0 -1 -1 -1 -1 -1 -2 -0 -1 -1 -1 -1 -1 0 -0 -2 -2 -2 -1 -1 -1 -1 0 -1
2 2 2 1 2 2 1 -1 -1 2 -0 1 -0 -0 -1 -1 -1 -1 -1 -1 -0 -1 0 -0 -0 -2 -1 -1 -1 -0 -1 0 -1 -0 -1 -1 -1 -1 -2 -0 -1 -1 -2
1 -4 0 3 4 1 -2 0 -0 0 -0 0 -0 0 -1 -1 -1 -1 -1 -1 -1 -2 -1 -0 -1 -2 -2 -2 -0 -2 -1 -1 -1 -1 -2 -1 -0 -2 -1 -1 -1 -1 -1
4 1 3 2 0 1 1 2 -0 -0 1 -1 -0 -0 -1 -2 -1 -1 -1 -1 -1 -2 -2 -1 -2 -2 -2 -2 -1 -2 -2 -1 -2 -1 -2 -1 -2 -2 -2 -1 -1 -2 -2
0 1 2 3 1 1 0 2 1 -0 0 -1 -0 0 -1 -2 -2 -1 -1 -1 -1 -1 -1 -2 -1 -1 -2 -3 -2 -2 -2 -2 -1 -1 -1 -2 -3 -2 -1 -2 0 0 -1
3 2 2 1 1 1 1 3 2 1 0 0 -0 -0 -1 -1 -1 -1 -1 -1 -1 -2 -3 -1 -1 -1 -1 -2 -2 -2 -1 -1 -1 -2 -3 -1 -2 -2 -1 -2 -1 -1 -2
6 2 -0 -0 1 1 0 1 2 1 3 1 -0 -0 0 -1 -1 0 -0 -1 -2 -2 -1 -2 -1 -2 -2 -2 -1 -2 -2 -1 -1 -0 -1 -1 -2 -2 -2 -2 -2 -1 -1
11 0 1 3 2 3 2 2 3 -0 2 1 0 0 -1 0 -2 -1 -0 -1 -1 -2 -1 -1 -1 -1 -1 -2 -2 0 -1 -0 -1 -1 -1 -1 -2 -2 -2 -1 -2 -2 -1
8 2 -0 4 -0 3 3 1 0 2 0 2 -0 0 1 0 -2 -2 -1 -1 -1 -2 -2 0 0 -1 -1 -1 -1 -2 -3 -1 -0 -1 -2 -2 -1 -2 -2 -2 -2 -2 -3
-0 -4 5 8 1 2 1 1 1 0 0 0 -1 0 1 0 -3 -0 0 -1 -1 0 -2 -2 -1 1 0 1 -1 -2 -4 -1 -3 -0 -0 -1 -1 -2 -1 -1 -0 -0 -1
8 10 2 4 2 2 3 -0 0 -0 -0 0 -2 -1 1 0 -4 1 1 -2 1 1 -0 -1 -1 -0 -0 -1 -1 -1 -0 -0 -3 -3 1 -0 -0 -1 -0 -1 -0 -0 -1
1 -4 -11 35 16 1 4 1 0 1 1 -1 -1 1 -2 1 -2 -1 2 -2 0 1 -0 -2 -1 -1 -2 -1 -2 -1 -0 -0 -1 -2 1 -5 -2 -3 -4 -2 -3 -2 -1
-11 -13 -19 1 13 1 -1 0 -0 0 -1 3 -5 -0 2 -0 -2 0 4 -1 -3 -2 -0 -1 -1 -1 -1 -0 -1 -1 -1 -1 -1 -0 -2 -1 -1 1 0 -2 -3 -3 -3
Height
3173 3174 3175 3176 3177 3178 3179 3180 3180 3180 3180 3180 3180 3179 3179 3178 3178 3177 3177 3177 3176 3176 3176 3175 3175 3174 3173 3172 3171 3170 3170 3168 3167 3166 3165 3163 3162 3162 3161 3160 3159 3159 3158
3172 3173 3175 3176 3177 3178 3179 3180 3180 3181 3181 3181 3181 3180 3179 3178 3179 3178 3178 3178 3177 3177 3176 3175 3174 3173 3172 3171 3170 3170 3169 3168 3167 3166 3164 3162 3161 3160 3160 3159 3158 3157 3157
3171 3172 3174 3176 3177 3178 3179 3180 3180 3181 3181 3182 3181 3180 3180 3179 3179 3178 3179 3178 3178 3177 3176 3175 3174 3173 3172 3171 3169 3169 3168 3167 3166 3164 3163 3161 3160 3159 3159 3158 3157 3156 3155
3169 3171 3173 3175 3176 3178 3179 3180 3181 3181 3181 3182 3182 3181 3180 3180 3180 3179 3178 3178 3178 3177 3176 3175 3174 3173 3171 3170 3168 3167 3166 3165 3164 3163 3162 3161 3159 3158 3157 3156 3155 3154 3153
3168 3170 3173 3175 3176 3177 3178 3180 3180 3181 3182 3182 3181 3181 3180 3180 3179 3180 3179 3178 3178 3177 3175 3175 3173 3172 3170 3169 3167 3166 3164 3163 3162 3161 3161 3159 3158 3157 3156 3155 3154 3153 3152
3167 3169 3172 3174 3175 3177 3178 3179 3180 3181 3181 3182 3181 3181 3180 3180 3180 3179 3179 3178 3177 3176 3175 3174 3172 3170 3168 3167 3166 3164 3163 3162 3161 3160 3159 3158 3157 3156 3155 3154 3153 3152 3151
3166 3168 3170 3172 3174 3176 3177 3178 3179 3180 3180 3181 3181 3181 3180 3180 3179 3179 3178 3177 3177 3175 3174 3173 3171 3169 3167 3165 3165 3164 3163 3161 3160 3159 3157 3156 3155 3154 3153 3152 3151 3150 3149
3165 3166 3169 3172 3174 3175 3176 3177 3178 3179 3180 3180 3180 3180 3180 3179 3178 3178 3177 3177 3176 3175 3173 3172 3170 3168 3167 3165 3163 3163 3162 3161 3159 3157 3156 3154 3154 3152 3151 3150 3149 3148 3147
3163 3165 3167 3170 3173 3174 3175 3176 3177 3178 3179 3180 3180 3180 3179 3178 3177 3177 3176 3176 3175 3174 3172 3170 3169 3167 3165 3164 3162 3162 3161 3160 3158 3156 3154 3152 3152 3151 3150 3149 3147 3146 3145
3161 3164 3166 3168 3172 3172 3174 3175 3177 3178 3179 3179 3179 3179 3178 3178 3177 3176 3176 3175 3174 3173 3171 3170 3168 3167 3165 3163 3162 3160 3160 3158 3157 3155 3153 3152 3150 3149 3148 3147 3145 3143 3142
3159 3161 3164 3166 3169 3171 3172 3174 3176 3178 3178 3178 3178 3178 3177 3177 3176 3175 3175 3174 3173 3173 3171 3169 3167 3166 3165 3163 3161 3159 3158 3157 3155 3154 3151 3150 3148 3147 3145 3144 3143 3141 3140
3157 3160 3161 3165 3167 3170 3170 3173 3174 3176 3176 3177 3177 3177 3176 3176 3175 3174 3174 3173 3172 3171 3170 3169 3166 3165 3164 3162 3160 3159 3157 3155 3154 3152 3150 3148 3146 3145 3144 3142 3140 3139 3138
3155 3158 3160 3162 3165 3168 3169 3171 3172 3174 3175 3175 3175 3175 3175 3175 3174 3173 3172 3172 3171 3170 3169 3168 3166 3164 3163 3161 3159 3157 3155 3153 3152 3150 3148 3146 3144 3142 3141 3139 3137 3135 3134
3151 3155 3158 3160 3163 3166 3168 3170 3171 3172 3174 3174 3174 3174 3174 3173 3173 3171 3171 3171 3170 3169 3169 3167 3165 3163 3162 3160 3158 3156 3154 3152 3150 3148 3147 3145 3143 3140 3138 3137 3134 3132 3131
3148 3152 3155 3158 3160 3163 3166 3168 3170 3170 3171 3172 3173 3173 3173 3172 3171 3170 3170 3170 3169 3168 3167 3166 3163 3162 3161 3158 3157 3155 3153 3151 3149 3147 3144 3143 3141 3138 3136 3134 3132 3130 3128
3146 3150 3153 3155 3157 3161 3164 3166 3167 3169 3169 3170 3172 3171 3171 3170 3169 3169 3169 3168 3167 3166 3165 3164 3162 3160 3159 3156 3155 3153 3151 3149 3147 3145 3143 3141 3139 3136 3134 3131 3129 3127 3125
3142 3144 3148 3152 3154 3158 3160 3162 3165 3166 3167 3168 3170 3169 3169 3168 3167 3167 3167 3166 3165 3164 3163 3162 3161 3159 3157 3154 3152 3151 3149 3147 3144 3142 3140 3138 3136 3134 3131 3129 3127 3125 3123
3137 3141 3145 3149 3151 3154 3156 3158 3161 3164 3165 3165 3167 3167 3167 3166 3165 3164 3164 3164 3162 3162 3161 3160 3159 3156 3155 3152 3150 3148 3146 3144 3142 3139 3137 3135 3133 3130 3128 3126 3124 3122 3120
3134 3137 3141 3145 3148 3151 3153 3155 3158 3160 3162 3163 3163 3164 3164 3163 3162 3161 3161 3161 3160 3159 3158 3157 3155 3153 3151 3149 3148 3145 3143 3140 3138 3136 3134 3132 3130 3127 3125 3123 3121 3118 3116
3131 3134 3138 3141 3144 3148 3150 3152 3154 3156 3157 3159 3160 3161 3161 3160 3159 3159 3158 3158 3157 3156 3155 3153 3151 3150 3148 3146 3145 3142 3140 3137 3134 3132 3130 3127 3125 3123 3121 3119 3117 3115 3112
3126 3130 3134 3137 3140 3144 3146 3148 3150 3152 3154 3155 3156 3156 3156 3157 3156 3155 3155 3154 3154 3152 3150 3149 3147 3146 3145 3143 3141 3138 3135 3133 3131 3128 3126 3123 3120 3118 3116 3113 3112 3110 3108
3123 3126 3130 3133 3136 3139 3142 3144 3146 3148 3150 3152 3152 3152 3152 3153 3153 3152 3152 3151 3150 3148 3146 3144 3143 3141 3140 3138 3135 3132 3130 3130 3127 3124 3121 3118 3115 3113 3110 3108 3106 3104 3102
3118 3123 3127 3129 3132 3135 3138 3141 3143 3145 3147 3148 3149 3148 3149 3149 3149 3147 3147 3146 3145 3144 3142 3140 3138 3137 3135 3133 3131 3129 3126 3124 3121 3121 3117 3113 3110 3108 3105 3103 3101 3099 3097
3113 3117 3120 3124 3128 3132 3135 3138 3140 3141 3143 3143 3144 3144 3145 3145 3146 3142 3143 3141 3139 3138 3136 3135 3133 3132 3130 3128 3126 3124 3121 3119 3116 3113 3112 3108 3105 3103 3100 3098 3095 3093 3091
3108 3110 3117 3113 3120 3126 3130 3133 3135 3137 3138 3139 3139 3139 3140 3140 3139 3138 3137 3135 3133 3132 3131 3130 3128 3126 3124 3122 3120 3118 3115 3112 3109 3106 3105 3102 3100 3098 3095 3092 3089 3087 3085
3103 3109 3111 3115 3119 3124 3126 3129 3130 3131 3133 3134 3135 3135 3135 3135 3133 3132 3131 3129 3128 3127 3125 3124 3122 3120 3118 3116 3114 3111 3109 3106 3103 3100 3097 3096 3094 3093 3089 3085 3083 3080 3079